Weather History for KLCK - March, 2013

Change the Weather History Date:

Wednesday, March 13, 2013

  Actual Average Record
Temperature  
Mean Temperature 33 °F -  
Max Temperature 36 °F 47 °F 78 °F (2007)
Min Temperature 29 °F 30 °F 14 °F (2014)
Degree Days  
Heating Degree Days 32    
Moisture  
Dew Point 22 °F    
Average Humidity 67    
Maximum Humidity 89    
Minimum Humidity 50    
Precipitation  
Precipitation 0.00 in - - ()
Sea Level Pressure  
Sea Level Pressure 30.10 in    
Wind  
Wind Speed 11 mph (West)    
Max Wind Speed 24 mph    
Max Gust Speed 32 mph    
Visibility 10 miles    
Events Snow    
Averages and records for this station are not official NWS values.
T = Trace of Precipitation, MM = Missing Value Source: NWS Daily Summary

Daily Weather History Graph

Daily Weather History Graph

Search for Another Location

Airport or City:

Trip Planner

Search our weather history database for the weather conditions in past years. The results will help you decide how hot, cold, wet, or windy it might be!

Date:

Astronomy

Mar. 13, 2013 Rise Set
Actual Time 7:45 AM EDT 7:36 PM EDT
Civil Twilight 7:19 AM EDT 8:03 PM EDT
Nautical Twilight 6:47 AM EDT 8:35 PM EDT
Astronomical Twilight 6:16 AM EDT 9:06 PM EDT
Moon 8:25 AM EDT (3/13) 9:51 PM EDT (3/13)
Length of Visible Light 12h 44m
Length of Day
11h 50m
Waxing Crescent, 4% of the Moon is Illuminated
Mar 13
Waxing Crescent
Mar 19
First Quarter
Mar 27
Full
Apr 3
Last Quarter
Apr 10
New

Hourly Weather History & Observations

Time (EDT) Temp. Windchill Dew Point Humidity Pressure Visibility Wind Dir Wind Speed Gust Speed Precip Events Conditions
12:15 AM 34.5 °F 30.4 °F 30.9 °F 87% 29.99 in 10.0 mi SSW 4.6 mph - N/A   Scattered Clouds
12:35 AM 33.4 °F 28.1 °F 30.2 °F 88% 29.99 in 10.0 mi South 5.8 mph - N/A   Mostly Cloudy
12:55 AM 32.9 °F 26.7 °F 30.0 °F 89% 30.00 in 10.0 mi SSW 6.9 mph - N/A   Mostly Cloudy
1:15 AM 33.6 °F 26.2 °F 30.6 °F 89% 30.00 in 10.0 mi WSW 9.2 mph - N/A   Overcast
1:55 AM 34.2 °F 26.8 °F 30.9 °F 88% 29.99 in 10.0 mi WSW 9.2 mph - N/A   Overcast
2:15 AM 33.8 °F 27.0 °F 30.4 °F 87% 29.99 in 10.0 mi West 8.1 mph - N/A   Overcast
2:35 AM 33.3 °F 26.4 °F 29.7 °F 87% 29.99 in 10.0 mi WSW 8.1 mph - N/A   Scattered Clouds
2:55 AM 32.7 °F 25.7 °F 28.9 °F 86% 29.99 in 10.0 mi WSW 8.1 mph - N/A   Scattered Clouds
3:35 AM 33.1 °F 25.5 °F 28.8 °F 84% 29.98 in 10.0 mi WSW 9.2 mph - N/A   Scattered Clouds
3:55 AM 32.2 °F 25.8 °F 28.0 °F 85% 29.98 in 10.0 mi WSW 6.9 mph - N/A   Clear
4:15 AM 31.5 °F 25.8 °F 27.1 °F 84% 29.98 in 10.0 mi SW 5.8 mph - N/A   Clear
4:55 AM 31.6 °F 25.1 °F 28.0 °F 87% 29.97 in 10.0 mi SW 6.9 mph - N/A   Overcast
5:15 AM 32.4 °F 26.9 °F 28.8 °F 87% 29.96 in 10.0 mi SW 5.8 mph - N/A   Overcast
5:35 AM 32.5 °F 27.1 °F 28.8 °F 86% 29.97 in 10.0 mi SW 5.8 mph - N/A   Overcast
5:55 AM 32.9 °F 27.5 °F 28.9 °F 85% 29.97 in 10.0 mi SW 5.8 mph - N/A   Overcast
6:15 AM 33.3 °F 26.4 °F 29.1 °F 85% 29.97 in 10.0 mi SW 8.1 mph - N/A   Overcast
6:35 AM 33.6 °F 25.6 °F 28.8 °F 82% 29.97 in 10.0 mi West 10.4 mph 17.3 mph N/A   Overcast
6:55 AM 33.6 °F 25.0 °F 26.4 °F 75% 29.98 in 10.0 mi West 11.5 mph - N/A   Overcast
7:15 AM 33.1 °F 24.4 °F 25.5 °F 74% 29.98 in 10.0 mi West 11.5 mph - N/A   Overcast
7:35 AM 32.9 °F 22.8 °F 25.9 °F 75% 29.98 in 10.0 mi WNW 15.0 mph 21.9 mph N/A   Overcast
7:55 AM 32.4 °F 22.1 °F 24.6 °F 73% 29.99 in 10.0 mi West 15.0 mph 23.0 mph N/A   Overcast
8:15 AM 32.0 °F 23.6 °F 23.4 °F 70% 30.00 in 10.0 mi WNW 10.4 mph 20.7 mph N/A   Overcast
8:35 AM 32.0 °F 20.8 °F 23.7 °F 71% 30.01 in 10.0 mi WNW 17.3 mph 21.9 mph N/A   Overcast
8:55 AM 32.0 °F 21.6 °F 23.7 °F 71% 30.02 in 10.0 mi West 15.0 mph 19.6 mph N/A   Overcast
9:15 AM 31.8 °F 21.4 °F 23.0 °F 70% 30.03 in 10.0 mi West 15.0 mph 21.9 mph N/A   Overcast
9:35 AM 31.8 °F 20.6 °F 21.7 °F 66% 30.03 in 10.0 mi West 17.3 mph 23.0 mph N/A   Overcast
9:55 AM 32.0 °F 20.1 °F 20.7 °F 63% 30.04 in 10.0 mi West 19.6 mph 25.3 mph N/A   Scattered Clouds
10:15 AM 32.0 °F 21.2 °F 20.5 °F 63% 30.05 in 10.0 mi WNW 16.1 mph 24.2 mph N/A   Mostly Cloudy
10:35 AM 32.0 °F 21.6 °F 20.1 °F 62% 30.06 in 10.0 mi West 15.0 mph 21.9 mph N/A   Overcast
10:55 AM 32.0 °F 22.5 °F 20.7 °F 63% 30.07 in 10.0 mi West 12.7 mph 20.7 mph N/A   Overcast
11:15 AM 32.4 °F 22.1 °F 21.0 °F 63% 30.07 in 10.0 mi West 15.0 mph 24.2 mph N/A   Overcast
11:35 AM 32.2 °F 20.7 °F 20.8 °F 63% 30.08 in 10.0 mi West 18.4 mph 25.3 mph N/A   Overcast
11:55 AM 32.0 °F 21.6 °F 22.1 °F 67% 30.09 in 7.0 mi West 15.0 mph 27.6 mph N/A Snow Light Snow
12:15 PM 32.7 °F 21.8 °F 21.7 °F 64% 30.09 in 10.0 mi West 17.3 mph 26.5 mph N/A   Overcast
12:35 PM 32.9 °F 22.4 °F 22.1 °F 65% 30.10 in 7.0 mi WNW 16.1 mph 23.0 mph N/A Snow Light Snow
12:55 PM 33.1 °F 21.2 °F 21.2 °F 62% 30.11 in 3.0 mi West 20.7 mph 32.2 mph N/A Snow Light Snow
1:15 PM 32.2 °F 20.7 °F 19.9 °F 61% 30.11 in 10.0 mi WNW 18.4 mph 26.5 mph N/A   Overcast
1:35 PM 33.6 °F 24.1 °F 19.2 °F 56% 30.11 in 10.0 mi WNW 13.8 mph 18.4 mph N/A   Overcast
1:55 PM 32.9 °F 20.7 °F 20.5 °F 60% 30.11 in 7.0 mi West 21.9 mph 26.5 mph N/A Snow Light Snow
2:15 PM 33.3 °F 20.6 °F 18.9 °F 56% 30.12 in 10.0 mi WNW 24.2 mph 31.1 mph N/A   Overcast
2:35 PM 31.5 °F 20.9 °F 21.6 °F 67% 30.13 in 1.2 mi WNW 15.0 mph 20.7 mph N/A Snow Light Snow
2:55 PM 31.8 °F 20.6 °F 21.2 °F 65% 30.13 in 10.0 mi WNW 17.3 mph 26.5 mph N/A   Overcast
3:15 PM 33.6 °F 23.7 °F 19.4 °F 56% 30.12 in 10.0 mi West 15.0 mph 24.2 mph N/A   Overcast
3:35 PM 36.3 °F 25.5 °F 20.1 °F 52% 30.13 in 10.0 mi WNW 20.7 mph 27.6 mph N/A   Overcast
3:55 PM 35.4 °F 25.3 °F 20.1 °F 54% 30.13 in 10.0 mi West 17.3 mph 26.5 mph N/A   Overcast
4:15 PM 34.9 °F 23.6 °F 19.8 °F 54% 30.14 in 10.0 mi WNW 20.7 mph 32.2 mph N/A   Overcast
4:35 PM 33.8 °F 24.3 °F 20.7 °F 59% 30.15 in 10.0 mi WNW 13.8 mph 19.6 mph N/A   Overcast
4:55 PM 33.3 °F 21.5 °F 18.5 °F 55% 30.16 in 10.0 mi West 20.7 mph 31.1 mph N/A   Overcast
5:15 PM 33.8 °F 24.3 °F 17.8 °F 52% 30.16 in 10.0 mi WNW 13.8 mph 27.6 mph N/A   Overcast
5:35 PM 33.3 °F 22.1 °F 17.6 °F 53% 30.17 in 10.0 mi WNW 18.4 mph 26.5 mph N/A   Overcast
5:55 PM 33.1 °F 21.9 °F 16.3 °F 50% 30.18 in 10.0 mi WNW 18.4 mph 25.3 mph N/A   Overcast
6:15 PM 32.5 °F 20.5 °F 16.9 °F 53% 30.19 in 10.0 mi West 20.7 mph 29.9 mph N/A   Overcast
6:35 PM 32.0 °F 20.5 °F 16.5 °F 53% 30.19 in 10.0 mi West 18.4 mph 23.0 mph N/A   Overcast
6:55 PM 32.0 °F 22.1 °F 16.0 °F 52% 30.20 in 10.0 mi West 13.8 mph 26.5 mph N/A   Overcast
7:15 PM 32.0 °F 20.1 °F 16.7 °F 53% 30.21 in 10.0 mi WNW 19.6 mph 25.3 mph N/A   Overcast
7:35 PM 31.5 °F 21.4 °F 17.2 °F 56% 30.21 in 10.0 mi West 13.8 mph 20.7 mph N/A   Overcast
7:55 PM 31.6 °F 21.6 °F 16.7 °F 54% 30.21 in 10.0 mi WNW 13.8 mph - N/A   Overcast
8:15 PM 31.5 °F 21.8 °F 17.1 °F 55% 30.22 in 7.0 mi WNW 12.7 mph 27.6 mph N/A Snow Light Snow
8:35 PM 31.1 °F 19.3 °F 17.8 °F 58% 30.23 in 10.0 mi WNW 18.4 mph 21.9 mph N/A   Overcast
8:55 PM 30.6 °F 22.4 °F 19.2 °F 63% 30.23 in 10.0 mi West 9.2 mph 18.4 mph N/A   Overcast
9:15 PM 30.6 °F 20.7 °F 19.2 °F 63% 30.23 in 10.0 mi West 12.7 mph - N/A   Overcast
9:35 PM 30.7 °F 20.9 °F 17.8 °F 59% 30.23 in 10.0 mi West 12.7 mph 19.6 mph N/A   Overcast
9:55 PM 30.9 °F 19.4 °F 17.4 °F 57% 30.23 in 10.0 mi West 17.3 mph 21.9 mph N/A   Overcast
10:15 PM 30.9 °F 19.8 °F 17.2 °F 57% 30.23 in 10.0 mi WNW 16.1 mph 21.9 mph N/A   Overcast
10:35 PM 30.7 °F 19.6 °F 17.4 °F 58% 30.24 in 10.0 mi WNW 16.1 mph 20.7 mph N/A   Overcast
10:55 PM 30.6 °F 20.7 °F 18.0 °F 60% 30.25 in 10.0 mi WNW 12.7 mph 19.6 mph N/A   Overcast
11:15 PM 30.4 °F 21.0 °F 17.6 °F 59% 30.26 in 10.0 mi WNW 11.5 mph 19.6 mph N/A   Overcast
11:35 PM 30.4 °F 22.2 °F 16.9 °F 57% 30.26 in 10.0 mi WNW 9.2 mph 16.1 mph N/A   Overcast
11:55 PM 29.8 °F 22.2 °F 16.0 °F 56% 30.26 in 10.0 mi WNW 8.1 mph - N/A   Mostly Cloudy